カタログに戻る

STARLINK-30910

運用中通信VLEO
NORAD 58376·PAYLOAD·🇺🇸 United States

打ち上げ Nov 20, 2023 から Vandenberg Space Force Base

Loading…

次のパス (今後24時間)

TLE

最新Source: CelesTrak SupGP

元期: Sep 14, 2026, 22:09 UTC

1 58376C 23178C   26257.92340278 -.00000571  00000+0 -16861-4 0  2574
2 58376  53.1577 197.8414 0001182  91.9718 284.5688 15.34403215    10

AllMySatでSTARLINK-30910をリアルタイム追跡

Download on the App Store